| time (UTC) | temp F | wind direction | speed MPH | gust MPH | rain 1hr in | rain 24hr in | rain mn in | humidity % | barometer mb |
| 20260906231604 | 82 | 0 | 0.0 | 5.0 | 0.00 | 0.00 | 0.00 | 16 | 1012.3 |
| 20260906230119 | 82 | 0 | 0.0 | 8.0 | 0.00 | 0.00 | 0.00 | 16 | 1012.2 |
| 20260906224614 | 83 | 0 | 0.0 | 3.0 | 0.00 | 0.00 | 0.00 | 15 | 1012.5 |
| 20260906223110 | 83 | 0 | 0.0 | 4.0 | 0.00 | 0.00 | 0.00 | 14 | 1012.6 |
| 20260906221605 | 84 | 360 | 1.0 | 13.0 | 0.00 | 0.00 | 0.00 | 13 | 1012.9 |
| 20260906214605 | 85 | 360 | 0.0 | 4.0 | 0.00 | 0.00 | 0.00 | 13 | 1012.9 |
| 20260906213112 | 85 | 0 | 0.0 | 6.0 | 0.00 | 0.00 | 0.00 | 13 | 1013.0 |
| 20260906211612 | 85 | 360 | 0.0 | 9.0 | 0.00 | 0.00 | 0.00 | 13 | 1013.1 |
| 20260906210111 | 85 | 0 | 1.0 | 8.0 | 0.00 | 0.00 | 0.00 | 12 | 1013.3 |
| 20260906204605 | 84 | 360 | 0.0 | 5.0 | 0.00 | 0.00 | 0.00 | 13 | 1013.5 |
| 20260906203103 | 84 | 360 | 0.0 | 5.0 | 0.00 | 0.00 | 0.00 | 13 | 1013.7 |
| 20260906201616 | 84 | 360 | 1.0 | 10.0 | 0.00 | 0.00 | 0.00 | 14 | 1014.0 |
| 20260906200059 | 84 | 0 | 1.0 | 9.0 | 0.00 | 0.00 | 0.00 | 14 | 1013.9 |
| 20260906194605 | 83 | 0 | 1.0 | 6.0 | 0.00 | 0.00 | 0.00 | 15 | 1013.8 |
| 20260906193104 | 83 | 360 | 0.0 | 9.0 | 0.00 | 0.00 | 0.00 | 14 | 1013.9 |
| 20260906191606 | 84 | 360 | 0.0 | 4.0 | 0.00 | 0.00 | 0.00 | 15 | 1013.9 |
| 20260906190106 | 83 | 0 | 0.0 | 11.0 | 0.00 | 0.00 | 0.00 | 16 | 1014.4 |
| 20260906184604 | 82 | 360 | 0.0 | 4.0 | 0.00 | 0.00 | 0.00 | 15 | 1014.6 |
| 20260906183117 | 82 | 0 | 0.0 | 6.0 | 0.00 | 0.00 | 0.00 | 16 | 1015.0 |
| 20260906181614 | 82 | 0 | 0.0 | 3.0 | 0.00 | 0.00 | 0.00 | 18 | 1015.1 |
| 20260906180123 | 82 | 0 | 0.0 | 2.0 | 0.00 | 0.00 | 0.00 | 19 | 1015.3 |
| 20260906174602 | 81 | 0 | 0.0 | 0.0 | 0.00 | 0.00 | 0.00 | 24 | 1015.6 |
| 20260906173101 | 77 | 0 | 0.0 | 0.0 | 0.00 | 0.00 | 0.00 | 32 | 1015.8 |
| 20260906171607 | 73 | 0 | 0.0 | 0.0 | 0.00 | 0.00 | 0.00 | 34 | 1016.2 |
| 20260906170107 | 72 | 0 | 0.0 | 1.0 | 0.00 | 0.00 | 0.00 | 36 | 1016.4 |
| 20260906164604 | 71 | 0 | 0.0 | 0.0 | 0.00 | 0.00 | 0.00 | 36 | 1016.6 |
| 20260906163110 | 69 | 0 | 0.0 | 0.0 | 0.00 | 0.00 | 0.00 | 38 | 1016.6 |
| 20260906161605 | 68 | 0 | 0.0 | 0.0 | 0.00 | 0.00 | 0.00 | 39 | 1016.8 |
| 20260906160105 | 67 | 0 | 0.0 | 0.0 | 0.00 | 0.00 | 0.00 | 40 | 1016.9 |
| 20260906154608 | 65 | 0 | 0.0 | 0.0 | 0.00 | 0.00 | 0.00 | 41 | 1017.1 |
| 20260906153102 | 63 | 0 | 0.0 | 0.0 | 0.00 | 0.00 | 0.00 | 42 | 1017.3 |
| 20260906151604 | 61 | 0 | 0.0 | 0.0 | 0.00 | 0.00 | 0.00 | 45 | 1017.3 |
| 20260906150107 | 58 | 0 | 0.0 | 0.0 | 0.00 | 0.00 | 0.00 | 50 | 1017.3 |
| 20260906144608 | 56 | 0 | 0.0 | 0.0 | 0.00 | 0.00 | 0.00 | 51 | 1017.3 |
| 20260906143108 | 53 | 0 | 0.0 | 0.0 | 0.00 | 0.00 | 0.00 | 54 | 1017.4 |
| 20260906141614 | 51 | 0 | 0.0 | 0.0 | 0.00 | 0.00 | 0.00 | 57 | 1017.2 |
| 20260906140100 | 50 | 0 | 0.0 | 0.0 | 0.00 | 0.00 | 0.00 | 60 | 1017.3 |
| 20260906134606 | 50 | 0 | 0.0 | 0.0 | 0.00 | 0.00 | 0.00 | 59 | 1017.3 |
| 20260906133110 | 50 | 0 | 0.0 | 0.0 | 0.00 | 0.00 | 0.00 | 58 | 1017.2 |
| 20260906131607 | 50 | 0 | 0.0 | 0.0 | 0.00 | 0.00 | 0.00 | 59 | 1017.1 |
| 20260906130107 | 50 | 0 | 0.0 | 0.0 | 0.00 | 0.00 | 0.00 | 58 | 1016.9 |
| 20260906124605 | 51 | 0 | 0.0 | 0.0 | 0.00 | 0.00 | 0.00 | 57 | 1016.7 |
| 20260906123104 | 51 | 0 | 0.0 | 0.0 | 0.00 | 0.00 | 0.00 | 57 | 1016.8 |
| 20260906121608 | 51 | 0 | 0.0 | 0.0 | 0.00 | 0.00 | 0.00 | 57 | 1016.6 |
| 20260906114613 | 53 | 0 | 0.0 | 0.0 | 0.00 | 0.00 | 0.00 | 55 | 1016.6 |
| 20260906113104 | 53 | 0 | 0.0 | 0.0 | 0.00 | 0.00 | 0.00 | 53 | 1016.4 |
| 20260906111600 | 54 | 0 | 0.0 | 0.0 | 0.00 | 0.00 | 0.00 | 52 | 1016.5 |
| 20260906110105 | 55 | 0 | 0.0 | 0.0 | 0.00 | 0.00 | 0.00 | 50 | 1016.4 |
| 20260906104602 | 57 | 0 | 0.0 | 0.0 | 0.00 | 0.00 | 0.00 | 48 | 1016.3 |
| 20260906103059 | 57 | 0 | 0.0 | 0.0 | 0.00 | 0.00 | 0.00 | 47 | 1016.1 |
| 20260906101557 | 58 | 0 | 0.0 | 0.0 | 0.00 | 0.00 | 0.00 | 50 | 1015.9 |
| 20260906094601 | 61 | 0 | 0.0 | 1.0 | 0.00 | 0.00 | 0.00 | 44 | 1015.6 |
| 20260906093059 | 61 | 0 | 0.0 | 2.0 | 0.00 | 0.00 | 0.00 | 47 | 1015.4 |
| 20260906091558 | 61 | 0 | 0.0 | 1.0 | 0.00 | 0.00 | 0.00 | 46 | 1015.4 |
| 20260906090107 | 59 | 0 | 0.0 | 2.0 | 0.00 | 0.00 | 0.00 | 46 | 1015.3 |
| 20260906084600 | 57 | 0 | 0.0 | 0.0 | 0.00 | 0.00 | 0.00 | 46 | 1015.1 |
| 20260906083059 | 57 | 0 | 0.0 | 0.0 | 0.00 | 0.00 | 0.00 | 45 | 1015.0 |
| 20260906081619 | 58 | 0 | 0.0 | 0.0 | 0.00 | 0.00 | 0.00 | 43 | 1014.8 |
| 20260906080059 | 59 | 0 | 0.0 | 0.0 | 0.00 | 0.00 | 0.00 | 42 | 1014.7 |
| 20260906074616 | 60 | 0 | 0.0 | 0.0 | 0.00 | 0.00 | 0.00 | 39 | 1014.7 |
| 20260906073101 | 61 | 0 | 0.0 | 0.0 | 0.00 | 0.00 | 0.00 | 37 | 1014.6 |
| 20260906071605 | 62 | 0 | 0.0 | 0.0 | 0.00 | 0.00 | 0.00 | 34 | 1014.5 |
| 20260906070112 | 64 | 0 | 0.0 | 0.0 | 0.00 | 0.00 | 0.00 | 31 | 1014.2 |
| 20260906064603 | 65 | 0 | 0.0 | 0.0 | 0.00 | 0.00 | 0.00 | 31 | 1014.1 |
| 20260906063102 | 65 | 0 | 0.0 | 1.0 | 0.00 | 0.00 | 0.00 | 31 | 1014.2 |
| 20260906061611 | 65 | 0 | 0.0 | 0.0 | 0.00 | 0.00 | 0.00 | 31 | 1014.1 |
| 20260906060111 | 65 | 0 | 0.0 | 0.0 | 0.00 | 0.00 | 0.00 | 30 | 1014.2 |
| 20260906054601 | 65 | 0 | 0.0 | 2.0 | 0.00 | 0.00 | 0.00 | 30 | 1014.2 |
| 20260906053102 | 65 | 0 | 0.0 | 0.0 | 0.00 | 0.00 | 0.00 | 30 | 1014.2 |
| 20260906051605 | 66 | 0 | 0.0 | 0.0 | 0.00 | 0.00 | 0.00 | 30 | 1014.5 |
| 20260906050059 | 67 | 0 | 0.0 | 0.0 | 0.00 | 0.00 | 0.00 | 28 | 1014.5 |
| 20260906044602 | 68 | 0 | 0.0 | 1.0 | 0.00 | 0.00 | 0.00 | 27 | 1014.7 |
| 20260906043059 | 68 | 0 | 0.0 | 0.0 | 0.00 | 0.00 | 0.00 | 27 | 1014.8 |
| 20260906041557 | 69 | 0 | 0.0 | 0.0 | 0.00 | 0.00 | 0.00 | 25 | 1014.8 |
| 20260906040058 | 69 | 0 | 0.0 | 1.0 | 0.00 | 0.00 | 0.00 | 25 | 1014.9 |
| 20260906034601 | 70 | 0 | 0.0 | 1.0 | 0.00 | 0.00 | 0.00 | 26 | 1015.0 |
| 20260906033102 | 70 | 0 | 0.0 | 0.0 | 0.00 | 0.00 | 0.00 | 26 | 1015.0 |
| 20260906031607 | 71 | 0 | 0.0 | 0.0 | 0.00 | 0.00 | 0.00 | 27 | 1014.9 |
| 20260906030105 | 72 | 0 | 0.0 | 0.0 | 0.00 | 0.00 | 0.00 | 27 | 1015.1 |
| 20260906024604 | 74 | 0 | 0.0 | 0.0 | 0.00 | 0.00 | 0.00 | 26 | 1015.0 |
| 20260906023059 | 76 | 0 | 0.0 | 0.0 | 0.00 | 0.00 | 0.00 | 22 | 1014.9 |
| 20260906021608 | 78 | 0 | 0.0 | 0.0 | 0.00 | 0.00 | 0.00 | 19 | 1014.8 |
| 20260906020106 | 79 | 0 | 0.0 | 0.0 | 0.00 | 0.00 | 0.00 | 18 | 1014.8 |
| 20260906014559 | 80 | 0 | 0.0 | 2.0 | 0.00 | 0.00 | 0.00 | 16 | 1014.7 |
| 20260906013057 | 81 | 360 | 0.0 | 5.0 | 0.00 | 0.00 | 0.00 | 15 | 1014.9 |
| 20260906011606 | 82 | 360 | 0.0 | 1.0 | 0.00 | 0.00 | 0.00 | 15 | 1014.9 |
| 20260906010104 | 83 | 0 | 0.0 | 2.0 | 0.00 | 0.00 | 0.00 | 14 | 1014.9 |
| 20260906004603 | 84 | 0 | 0.0 | 1.0 | 0.00 | 0.00 | 0.00 | 14 | 1014.7 |
| 20260906003110 | 84 | 0 | 0.0 | 2.0 | 0.00 | 0.00 | 0.00 | 14 | 1014.7 |
| 20260906001610 | 85 | 0 | 0.0 | 2.0 | 0.00 | 0.00 | 0.00 | 14 | 1014.7 |
| 20260906000108 | 85 | 0 | 0.0 | 2.0 | 0.00 | 0.00 | 0.00 | 14 | 1014.9 |
| 20260905234606 | 85 | 0 | 0.0 | 3.0 | 0.00 | 0.00 | 0.00 | 14 | 1014.7 |
| 20260905233105 | 86 | 0 | 0.0 | 3.0 | 0.00 | 0.00 | 0.00 | 15 | 1014.9 |